sat.trackr.live / text

‹ back to catalog

STARLINK-11290 [DTC]

NORAD 61000 · 2024-158L

PAYLOAD ACTIVE UNKNOWN

§ Identity

Operator
Country
US
Launch date
2024-09-05
Launch site
AFETR
Launch vehicle
Mass (kg)
RCS (m²)

Purposes: comms

External: N2YO · Heavens-Above · Gunter

§ Orbital elements

Epoch: 2026-09-21T14:17:11.715072Z

Period
91.74 min
Inclination
53.1593°
Eccentricity
0.0000760
Mean motion
15.69710930 rev/d
Perigee alt
359.2 km
Apogee alt
360.2 km
Semi-major
6,737.9 km
B*
-1.5159e-7
RAAN
35.5314°
Arg perigee
67.5392°
Mean anomaly
292.5706°
Rev number
11,842

§ Raw data

STARLINK-11290 [DTC]1 61000U 24158L   26264.59527448 -.00000606  00000+0 -15159-6 0  99912 61000  53.1593  35.5314 0000760  67.5392 292.5706 15.69710930118429

JSON: /api/v1/satellites/61000 · /tle

For live sub-satellite position, see the globe view (requires WebGL).

§ Visibility from observer

Set your observer location to see the next 7 days of passes ≥ 10°. The values pass through the URL so the page stays shareable.

No JS? Fill the form by hand. The geolocation button needs JavaScript.